Regional Weather Roundup
Issued by NWS

Home | Current Version | Previous Version | Graphics & Text | Print | Product List | Glossary On
Versions: 1 2 3 4 5 6 7 8 9 10 11 12 13 14 15 16 17 18 19 20 21 22 23 24 25 26 27 28 29 30 31 32 33 34 35 36 37 38 39 40 41 42 43 44 45 46 47 48 49 50
000
ASUS43 KOAX 022202
RWRNE

WEATHER ROUNDUP FOR NEBRASKA
NATIONAL WEATHER SERVICE OMAHA NE
500 PM CDT TUE SEP 02 2014

NOTES: SATELLITE DATA IS BEING USED TO AUGMENT CLOUD COVER ABOVE
       12000 FEET.
       "FAIR" INDICATES FEW OR NO CLOUDS BELOW 12,000 FEET WITH NO
       SIGNIFICANT WEATHER AND/OR OBSTRUCTIONS TO VISIBILITY.

  * THESE STATIONS DO NOT REPORT WEATHER SUCH AS RAIN...SNOW OR FOG.

NEZ001>004-019>022-054>056-022300-
NEBRASKA PANHANDLE

CITY           SKY/WX    TMP DP  RH WIND       PRES   REMARKS
SCOTTSBLUFF    SUNNY     87  42  20 N9        29.90F
ALLIANCE       SUNNY     85  41  21 W13G22    29.91F
CHADRON        SUNNY     84  40  21 W6G18     29.86F
SIDNEY         SUNNY     85  53  33 S15G23    29.96F
$$

NEZ057>060-069>072-079>082-022300-
SOUTHWEST NEBRASKA

CITY           SKY/WX    TMP DP  RH WIND       PRES   REMARKS
NORTH PLATTE   MOSUNNY   81  59  47 S13       29.92F
IMPERIAL       SUNNY     86  53  32 S16G24    29.94F
LEXINGTON      SUNNY     82  58  42 S15G23    29.95F
MCCOOK         LGT RAIN  88  55  32 S18G25    29.94F
$$

NEZ005>010-023>029-035>040-094-022300-
NORTH CENTRAL NEBRASKA

CITY           SKY/WX    TMP DP  RH WIND       PRES   REMARKS
VALENTINE      SUNNY     83  52  34 S14G23    29.89F
AINSWORTH      SUNNY     79  54  41 S13       29.91F
BROKEN BOW     PTSUNNY   80  61  52 S16G25    29.94F
ORD            SUNNY     81  56  42 S13       29.93F
$$

NEZ041-046>049-061>064-073>077-083>087-022300-
SOUTH CENTRAL NEBRASKA

CITY           SKY/WX    TMP DP  RH WIND       PRES   REMARKS
GRAND ISLAND   SUNNY     81  59  47 S8        29.96F
AURORA         SUNNY     79  58  47 SE6       29.96F
HASTINGS       SUNNY     81  54  39 S5        29.96F
HEBRON         SUNNY     83  53  35 CALM      29.95F
HOLDREGE       SUNNY     82  57  42 S13G18    29.96F
KEARNEY *      SUNNY     81  61  50 SE12      29.96F
$$

NEZ011>018-030>034-042>045-022300-
NORTHEAST NEBRASKA

CITY           SKY/WX    TMP DP  RH WIND       PRES   REMARKS
NORFOLK        SUNNY     78  57  48 S8        29.95F
ALBION         SUNNY     77  55  45 S7        29.95F
BLAIR          SUNNY     78  58  48 SW5       29.96F
FREMONT        SUNNY     80  55  42 SW8       29.97F
TEKAMAH        SUNNY     79  59  50 SW7       29.95F
$$

NEZ050>053-065>068-078-088>093-022300-
SOUTHEAST NEBRASKA

CITY           SKY/WX    TMP DP  RH WIND       PRES   REMARKS
LINCOLN        SUNNY     81  55  40 SW3       29.96F
OMAHA EPPLEY   MOSUNNY   80  55  42 W10       29.96F
BEATRICE       SUNNY     83  57  40 NW3       29.94F
FALLS CITY     SUNNY     85  61  44 NW5       29.93F
NEBRASKA CITY  SUNNY     82  55  40 W6        29.95F
PLATTSMOUTH    SUNNY     81  54  39 SW5       29.96F
$$

NEZ044-045-051>053-067-022300-
OMAHA AREA

CITY           SKY/WX    TMP DP  RH WIND       PRES   REMARKS
OMAHA EPPLEY   MOSUNNY   80  55  42 W10       29.96F
BLAIR          SUNNY     78  58  48 SW5       29.96F
FREMONT        SUNNY     80  55  42 SW8       29.97F
OFFUTT AFB     SUNNY     80  57  45 VRB3      29.95F
PLATTSMOUTH    SUNNY     81  54  39 SW5       29.96F
WAHOO          FAIR      80  52  38 CALM      29.95F
$$



USA.gov is the U.S. government's official web portal to all federal, state and local government web resources and services.